• In Deutschland
  • Länderverzeichnis
  • Für 7 Tage
  • Wassertemperatur
  • Satellitenkarten
  • Wetterkarte
  • Widgets
  • user-avatar
    Anmelden

    Stündliche Wetter Bad Peterstal-Griesbach

    Heute, 18 Dezember, Montag

    Zeit Temperatur Niederschläge Wind Luftdruck Luftfeuchtigkeit
    00:00 -4°C° 0 mm 2 m/S 723 mmHg 88%
    01:00 -3°C° 0 mm 2 m/S 723 mmHg 87%
    02:00 -4°C° 0,1 mm 3 m/S 722 mmHg 86%
    03:00 -2°C° 0,1 mm 3 m/S 722 mmHg 85%
    04:00 -2°C° 0,1 mm 3 m/S 721 mmHg 83%
    05:00 -2°C° 0,7 mm 3 m/S 721 mmHg 86%
    06:00 -3°C° 0,7 mm 4 m/S 720 mmHg 88%
    07:00 -3°C° 0,7 mm 4 m/S 720 mmHg 90%
    08:00 -2°C° 0,7 mm 3 m/S 719 mmHg 90%
    09:00 -2°C° 0,7 mm 3 m/S 719 mmHg 90%
    10:00 -1°C° 0,7 mm 3 m/S 719 mmHg 90%
    11:00 -1°C° 0,2 mm 2 m/S 719 mmHg 90%
    12:00 +1°C° 0,2 mm 2 m/S 719 mmHg 90%
    13:00 +2°C° 0,2 mm 1 m/S 719 mmHg 90%
    14:00 +2°C° 0 mm 1 m/S 720 mmHg 91%
    15:00 +1°C° 0 mm 0 m/S 720 mmHg 92%
    16:00 +1°C° 0 mm 0 m/S 721 mmHg 93%
    17:00 0°C° 0 mm 0 m/S 721 mmHg 93%
    18:00 0°C° 0 mm 0 m/S 722 mmHg 94%
    19:00 -1°C° 0 mm 0 m/S 722 mmHg 94%
    20:00 -1°C° 0 mm 0 m/S 722 mmHg 94%
    21:00 -1°C° 0 mm 0 m/S 723 mmHg 94%
    22:00 -2°C° 0 mm 0 m/S 723 mmHg 94%
    23:00 -2°C° 0 mm 0 m/S 724 mmHg 94%

    Morgen, 19 Dezember, Dienstag

    Zeit Temperatur Niederschläge Wind Luftdruck Luftfeuchtigkeit
    00:00 -2°C° 0 mm 0 m/S 724 mmHg 94%
    01:00 -2°C° 0 mm 0 m/S 725 mmHg 94%
    02:00 -2°C° 0 mm 0 m/S 725 mmHg 94%
    03:00 -2°C° 0 mm 0 m/S 725 mmHg 94%
    04:00 -1°C° 0 mm 1 m/S 726 mmHg 94%
    05:00 -1°C° 0 mm 1 m/S 726 mmHg 94%
    06:00 -1°C° 0 mm 0 m/S 726 mmHg 94%
    07:00 -1°C° 0 mm 0 m/S 727 mmHg 94%
    08:00 -1°C° 0 mm 0 m/S 727 mmHg 93%
    09:00 0°C° 0 mm 0 m/S 728 mmHg 92%
    10:00 0°C° 0 mm 0 m/S 728 mmHg 91%
    11:00 +1°C° 0 mm 1 m/S 729 mmHg 90%
    12:00 +2°C° 0 mm 1 m/S 729 mmHg 88%
    13:00 +2°C° 0 mm 1 m/S 729 mmHg 86%
    14:00 +2°C° 0 mm 1 m/S 729 mmHg 88%
    15:00 +1°C° 0 mm 1 m/S 729 mmHg 90%
    16:00 +1°C° 0 mm 1 m/S 729 mmHg 92%
    17:00 +1°C° 0 mm 1 m/S 729 mmHg 92%
    18:00 -1°C° 0 mm 0 m/S 729 mmHg 92%
    19:00 -1°C° 0 mm 0 m/S 730 mmHg 93%
    20:00 -1°C° 0 mm 0 m/S 730 mmHg 93%
    21:00 -1°C° 0 mm 0 m/S 730 mmHg 93%
    22:00 -1°C° 0 mm 0 m/S 730 mmHg 93%
    23:00 -1°C° 0,1 mm 0 m/S 730 mmHg 93%

    übermorgen, 20 Dezember, Mittwoch

    Zeit Temperatur Niederschläge Wind Luftdruck Luftfeuchtigkeit
    00:00 0°C° 0,1 mm 1 m/S 730 mmHg 93%
    01:00 0°C° 0,1 mm 1 m/S 730 mmHg 93%
    02:00 0°C° 0,4 mm 1 m/S 730 mmHg 94%
    03:00 +1°C° 0,4 mm 1 m/S 730 mmHg 94%
    04:00 +1°C° 0,4 mm 1 m/S 729 mmHg 94%
    05:00 +1°C° 0,4 mm 1 m/S 729 mmHg 94%
    06:00 +1°C° 0,4 mm 1 m/S 729 mmHg 94%
    07:00 +1°C° 0,4 mm 1 m/S 729 mmHg 94%
    08:00 +1°C° 0,5 mm 1 m/S 729 mmHg 94%
    09:00 +1°C° 0,5 mm 1 m/S 729 mmHg 94%
    10:00 +2°C° 0,5 mm 1 m/S 729 mmHg 94%
    11:00 +2°C° 0,4 mm 1 m/S 729 mmHg 94%
    12:00 +2°C° 0,4 mm 1 m/S 729 mmHg 95%
    13:00 +2°C° 0,4 mm 1 m/S 728 mmHg 95%
    14:00 +2°C° 0,2 mm 1 m/S 728 mmHg 95%
    15:00 +2°C° 0,2 mm 1 m/S 728 mmHg 95%
    16:00 +2°C° 0,2 mm 1 m/S 728 mmHg 96%
    17:00 +2°C° 0,2 mm 1 m/S 728 mmHg 96%
    18:00 +2°C° 0,2 mm 1 m/S 729 mmHg 96%
    19:00 +2°C° 0,2 mm 1 m/S 729 mmHg 96%
    20:00 +2°C° 0,2 mm 1 m/S 729 mmHg 97%
    21:00 +2°C° 0,2 mm 1 m/S 729 mmHg 97%
    22:00 +2°C° 0,2 mm 1 m/S 729 mmHg 97%
    23:00 +2°C° 0,1 mm 1 m/S 729 mmHg 97%

    21 Dezember, Donnerstag

    Zeit Temperatur Niederschläge Wind Luftdruck Luftfeuchtigkeit
    00:00 +2°C° 0,1 mm 1 m/S 729 mmHg 97%
    01:00 +2°C° 0,1 mm 1 m/S 729 mmHg 97%
    02:00 +3°C° 0 mm 1 m/S 729 mmHg 97%
    03:00 +3°C° 0 mm 1 m/S 729 mmHg 96%
    04:00 +3°C° 0 mm 1 m/S 729 mmHg 96%
    05:00 +3°C° 0 mm 1 m/S 729 mmHg 96%
    06:00 +3°C° 0 mm 1 m/S 730 mmHg 96%
    07:00 +3°C° 0 mm 1 m/S 730 mmHg 96%
    08:00 +3°C° 0 mm 1 m/S 730 mmHg 96%
    09:00 +4°C° 0 mm 1 m/S 730 mmHg 96%
    10:00 +4°C° 0 mm 1 m/S 730 mmHg 96%
    11:00 +3°C° 0,1 mm 2 m/S 730 mmHg 96%
    12:00 +4°C° 0,1 mm 2 m/S 730 mmHg 96%
    13:00 +4°C° 0,1 mm 2 m/S 730 mmHg 95%
    14:00 +4°C° 0,6 mm 2 m/S 730 mmHg 96%
    15:00 +4°C° 0,6 mm 2 m/S 729 mmHg 96%
    16:00 +4°C° 0,6 mm 2 m/S 729 mmHg 96%
    17:00 +3°C° 1,2 mm 3 m/S 729 mmHg 96%
    18:00 +3°C° 1,2 mm 3 m/S 729 mmHg 97%
    19:00 +3°C° 1,2 mm 3 m/S 730 mmHg 97%
    20:00 +3°C° 0,9 mm 3 m/S 730 mmHg 97%
    21:00 +4°C° 0,9 mm 2 m/S 730 mmHg 97%
    22:00 +4°C° 0,9 mm 2 m/S 730 mmHg 97%
    23:00 +4°C° 0,4 mm 2 m/S 730 mmHg 97%

    22 Dezember, Freitag

    Zeit Temperatur Niederschläge Wind Luftdruck Luftfeuchtigkeit
    00:00 +4°C° 0,4 mm 2 m/S 730 mmHg 97%
    01:00 +4°C° 0,4 mm 2 m/S 730 mmHg 97%
    02:00 +4°C° 0,1 mm 2 m/S 730 mmHg 97%
    03:00 +5°C° 0,1 mm 1 m/S 730 mmHg 97%
    04:00 +5°C° 0,1 mm 1 m/S 730 mmHg 97%
    05:00 +5°C° 0 mm 1 m/S 730 mmHg 97%
    06:00 +4°C° 0 mm 1 m/S 730 mmHg 97%
    07:00 +4°C° 0 mm 1 m/S 730 mmHg 96%
    08:00 +5°C° 0 mm 1 m/S 730 mmHg 96%
    09:00 +5°C° 0 mm 1 m/S 731 mmHg 96%
    10:00 +4°C° 0 mm 0 m/S 731 mmHg 96%
    11:00 +5°C° 0 mm 0 m/S 731 mmHg 95%
    12:00 +5°C° 0 mm 0 m/S 730 mmHg 94%
    13:00 +6°C° 0 mm 0 m/S 730 mmHg 92%
    14:00 +5°C° 0 mm 0 m/S 730 mmHg 93%
    15:00 +5°C° 0 mm 0 m/S 730 mmHg 94%
    16:00 +5°C° 0 mm 0 m/S 729 mmHg 95%
    17:00 +4°C° 0 mm 0 m/S 730 mmHg 95%
    18:00 +4°C° 0 mm 0 m/S 730 mmHg 96%
    19:00 +4°C° 0 mm 1 m/S 730 mmHg 96%
    20:00 +4°C° 0 mm 1 m/S 730 mmHg 96%
    21:00 +4°C° 0 mm 1 m/S 730 mmHg 96%
    22:00 +4°C° 0 mm 1 m/S 730 mmHg 96%
    23:00 +4°C° 0 mm 1 m/S 730 mmHg 96%

    23 Dezember, Samstag

    Zeit Temperatur Niederschläge Wind Luftdruck Luftfeuchtigkeit
    00:00 +4°C° 0 mm 1 m/S 730 mmHg 96%
    01:00 +4°C° 0 mm 1 m/S 730 mmHg 96%
    02:00 +4°C° 0 mm 1 m/S 730 mmHg 95%
    03:00 +4°C° 0 mm 1 m/S 730 mmHg 95%
    04:00 +4°C° 0 mm 1 m/S 730 mmHg 95%
    05:00 +3°C° 0 mm 1 m/S 730 mmHg 94%
    06:00 +3°C° 0 mm 1 m/S 730 mmHg 94%
    07:00 +3°C° 0 mm 1 m/S 730 mmHg 93%
    08:00 +3°C° 0 mm 1 m/S 731 mmHg 92%
    09:00 +2°C° 0 mm 0 m/S 731 mmHg 91%
    10:00 +3°C° 0 mm 0 m/S 731 mmHg 90%
    11:00 +3°C° 0 mm 0 m/S 731 mmHg 88%
    12:00 +4°C° 0 mm 0 m/S 731 mmHg 86%
    13:00 +5°C° 0 mm 0 m/S 731 mmHg 84%
    14:00 +4°C° 0 mm 0 m/S 730 mmHg 86%
    15:00 +4°C° 0 mm 0 m/S 730 mmHg 88%
    16:00 +3°C° 0 mm 0 m/S 730 mmHg 90%
    17:00 +2°C° 0 mm 0 m/S 730 mmHg 90%
    18:00 +2°C° 0 mm 0 m/S 730 mmHg 91%
    19:00 +1°C° 0 mm 0 m/S 730 mmHg 91%
    20:00 +1°C° 0 mm 0 m/S 730 mmHg 90%
    21:00 +1°C° 0 mm 0 m/S 729 mmHg 89%
    22:00 0°C° 0 mm 0 m/S 729 mmHg 88%
    23:00 +1°C° 0 mm 1 m/S 729 mmHg 88%
    Mehr zeigen

    XHprof extension not loaded